TimeCDT,TemperatureF,Dew PointF,Humidity,Sea Level PressureIn,VisibilityMPH,Wind Direction,Wind SpeedMPH,Gust SpeedMPH,PrecipitationIn,Events,Conditions,WindDirDegrees,DateUTC
12:53 AM,61.0,57.9,90,29.84,10.0,SSW,5.8,-,N/A,,Clear,200,2013-10-01 05:53:00
1:53 AM,59.0,57.0,93,29.84,10.0,South,6.9,-,N/A,,Clear,180,2013-10-01 06:53:00
2:53 AM,60.1,57.9,93,29.84,10.0,South,8.1,-,N/A,,Clear,180,2013-10-01 07:53:00
3:53 AM,60.1,57.9,93,29.83,10.0,South,8.1,-,N/A,,Clear,190,2013-10-01 08:53:00
4:53 AM,60.1,57.9,93,29.84,10.0,South,8.1,-,0.01,,Clear,190,2013-10-01 09:53:00
5:53 AM,60.1,57.9,93,29.86,10.0,South,8.1,-,N/A,,Clear,190,2013-10-01 10:53:00
6:53 AM,59.0,57.0,93,29.90,10.0,South,5.8,-,N/A,,Clear,190,2013-10-01 11:53:00
7:53 AM,61.0,59.0,93,29.89,10.0,South,10.4,-,N/A,,Clear,190,2013-10-01 12:53:00
8:53 AM,64.9,61.0,87,29.90,10.0,SSW,13.8,-,N/A,,Clear,200,2013-10-01 13:53:00
9:53 AM,71.1,62.1,73,29.90,10.0,SSW,11.5,-,N/A,,Clear,210,2013-10-01 14:53:00
10:53 AM,75.0,61.0,62,29.91,10.0,South,10.4,-,N/A,,Clear,190,2013-10-01 15:53:00
11:53 AM,79.0,59.0,50,29.90,10.0,SW,9.2,-,N/A,,Clear,230,2013-10-01 16:53:00
12:53 PM,81.0,57.9,45,29.89,10.0,WSW,13.8,21.9,N/A,,Clear,240,2013-10-01 17:53:00
1:53 PM,82.0,57.9,44,29.87,10.0,SW,15.0,-,N/A,,Clear,220,2013-10-01 18:53:00
2:53 PM,82.9,57.9,42,29.88,10.0,West,10.4,18.4,N/A,,Clear,260,2013-10-01 19:53:00
3:53 PM,84.0,57.9,41,29.88,10.0,SW,12.7,19.6,N/A,,Clear,220,2013-10-01 20:53:00
4:53 PM,82.9,57.0,41,29.89,10.0,West,10.4,-,N/A,,Clear,260,2013-10-01 21:53:00
5:53 PM,81.0,57.0,44,29.89,10.0,WSW,8.1,-,N/A,,Clear,250,2013-10-01 22:53:00
6:53 PM,73.9,57.9,57,29.91,10.0,Calm,Calm,-,N/A,,Clear,0,2013-10-01 23:53:00
7:53 PM,72.0,57.9,61,29.93,10.0,Calm,Calm,-,N/A,,Clear,0,2013-10-02 00:53:00
8:53 PM,69.1,59.0,70,29.94,10.0,Calm,Calm,-,N/A,,Clear,0,2013-10-02 01:53:00
9:53 PM,66.0,59.0,78,29.95,10.0,Calm,Calm,-,N/A,,Clear,0,2013-10-02 02:53:00
10:53 PM,64.9,57.9,78,29.95,10.0,Calm,Calm,-,N/A,,Clear,0,2013-10-02 03:53:00
11:53 PM,64.0,59.0,84,29.96,10.0,Calm,Calm,-,N/A,,Clear,0,2013-10-02 04:53:00